This demonstration page uses our WeatherBlox Daily Observations layout. Learn more.

Left ArrowRight Arrow

30.21309, -93.2044

Hourly Observations for October 17, 2015

Temp ( °F °C ) Dew Point ( °F °C ) Humidity (%) Winds ( mph kmh ) Pressure ( in mb ) Visibility ( mi km ) Precip ( " mm )
12:15 am 00:15 Clear 69 20.5 48 8.7 47 47 NE 8 13 30.21 1023 10 16 0.00 0.00
12:35 am 00:35 Clear 67 19.7 47 8.4 48 48 NE 8 13 30.21 1023 10 16 0.00 0.00
12:55 am 00:55 Clear 67 19.6 46 8 47 47 NE 8 13 30.21 1023 10 16 0.00 0.00
1:15 am 01:15 Clear 67 19.2 46 7.6 47 47 NE 9 15 30.21 1023 10 16 0.00 0.00
1:35 am 01:35 Clear 66 19.1 44 6.9 45 45 NE 8 13 30.18 1022 10 16 0.00 0.00
1:55 am 01:55 Clear 66 18.7 44 6.5 45 45 NE 7 11 30.18 1022 10 16 0.00 0.00
2:15 am 02:15 Clear 66 18.7 42 5.6 42 42 NE 12 19 30.18 1022 10 16 0.00 0.00
2:35 am 02:35 Clear 65 18.5 41 5.1 41 41 NE 8 13 30.18 1022 10 16 0.00 0.00
2:55 am 02:55 Clear 65 18.2 41 4.8 41 41 NE 8 13 30.18 1022 10 16 0.00 0.00
3:15 am 03:15 Clear 65 18.2 40 4.5 41 41 NE 7 11 30.21 1023 10 16 0.00 0.00
3:35 am 03:35 Clear 64 17.7 40 4.5 42 42 NE 8 13 30.18 1022 10 16 0.00 0.00
3:55 am 03:55 Clear 63 17.2 40 4.4 43 43 NNE 8 13 30.18 1022 10 16 0.00 0.00
4:15 am 04:15 Clear 62 16.8 39 4.1 43 43 NNE 8 13 30.18 1022 10 16 0.00 0.00
4:35 am 04:35 Clear 62 16.7 39 3.8 42 42 NNE 9 15 30.21 1023 10 16 0.00 0.00
4:55 am 04:55 Clear 62 16.5 38 3.6 42 42 NNE 9 15 30.21 1023 10 16 0.00 0.00
5:15 am 05:15 Clear 61 16.1 39 3.8 44 44 NNE 8 13 30.21 1023 10 16 0.00 0.00
6:00 am 06:00 Mostly Clear 59 15 39 4 48 48 NNE 7 11 30.21 1023 10 16 0.00 0.00
6:50 am 06:50 Mostly Clear 57 14 39 4 51 51 NNE 5 7 30.24 1024 10 16 0.00 0.00
7:50 am 07:50 Mostly Sunny 59 15 39 4 48 48 NNE 13 20 30.24 1024 10 16 0.00 0.00
8:50 am 08:50 Mostly Sunny 63 17 39 4 42 42 NE 12 19 30.27 1025 10 16 0.00 0.00
9:50 am 09:50 Mostly Sunny 70 21 39 4 33 33 ENE 13 20 30.30 1026 10 16 0.00 0.00
10:50 am 10:50 Mostly Sunny 70 21 39 4 33 33 NE 10 17 30.30 1026 10 16 0.00 0.00
11:50 am 11:50 Mostly Sunny 73 23 39 4 29 29 ENE 9 15 30.27 1025 10 16 0.00 0.00
1:50 pm 13:50 Mostly Sunny 77 25 39 4 26 26 N 8 13 30.24 1024 10 16 0.00 0.00
2:50 pm 14:50 Mostly Sunny 79 26 39 4 24 24 NNE 10 17 30.21 1023 10 16 0.00 0.00
3:50 pm 15:50 Mostly Sunny 79 26 37 3 23 23 N 12 19 30.21 1023 10 16 0.00 0.00
4:50 pm 16:50 Mostly Sunny 77 25 37 3 24 24 NE 8 13 30.21 1023 10 16 0.00 0.00
5:50 pm 17:50 Mostly Sunny 75 24 39 4 27 27 NE 5 7 30.21 1023 10 16 0.00 0.00
6:50 pm 18:50 Mostly Clear 70 21 36 2 29 29 NNE 7 11 30.24 1024 10 16 0.00 0.00
7:50 pm 19:50 Mostly Clear 66 19 36 2 32 32 NE 5 7 30.24 1024 10 16 0.00 0.00
8:50 pm 20:50 Mostly Clear 63 17 37 3 39 39 NNE 3 6 30.27 1025 10 16 0.00 0.00
9:50 pm 21:50 Mostly Clear 63 17 37 3 39 39 NE 6 9 30.27 1025 10 16 0.00 0.00
10:15 pm 22:15 Clear 63 17 37 2.5 38 38 NNE 6 9 30.27 1025 10 16 0.00 0.00
10:35 pm 22:35 Clear 62 16.5 37 2.5 39 39 NNE 5 7 30.27 1025 10 16 0.00 0.00
10:55 pm 22:55 Clear 61 16.3 36 2.4 39 39 NE 5 7 30.27 1025 10 16 0.00 0.00
11:15 pm 23:15 Clear 62 16.4 36 2.3 39 39 NNE 5 7 30.27 1025 10 16 0.00 0.00
11:35 pm 23:35 Clear 61 16.2 36 2.4 40 40 NNE 7 11 30.27 1025 10 16 0.00 0.00
11:55 pm 23:55 Clear 61 16 36 2.4 40 40 NE 6 9 30.27 1025 10 16 0.00 0.00

Powered by AerisWeather